STARLINK-36850, 68119

Orbit data source: Space-Track

STARLINK-36850, 68119 is a payload satellite owned by SpaceX/Seattle (US) in SSO that was launched on Sun, 08 Mar 2026 UTC via an FALCON 9 launch vehicle from the Air Force Western Test Range (AFWTR). Payload-class satellites include a variety of spacecraft equipped with specific instruments for various scientific and technological missions. These include communications satellites like Starlink; space stations such as the ISS; scientific satellites like the Hubble; Earth observation satellites from companies like Planet Labs, Umbra, and HawkEye 360; GPS; miniature CubeSats for education and research; and military/defense satellites.

Loading next visibility...
Identifier
68119, 2026-044U
Orbit
SSO
Country
Flag of USUS
Related business
Manufacturer
SpaceX/Seattle
Mission
Operational spacecraft
Bus & Motor
STARLINK V2MO, Unknown motor
Mass
575 kg wet, ~530 kg dry
Launch date (UTC)
2026-03-08 (2 months ago)
Launch vehicle
FALCON 9
Launch site
Air Force Western Test Range (AFWTR)
Object type
Payload
Rocket body
Debris
Shape & HBR
Unknown shape, 17.7 m
Radar Cross Section
RCS unknown

Expand to show TLE details & history
Last TLE update: 12 hours ago

TLE from 12 hours ago
0 STARLINK-36850
1 68119U 26044U   26119.43972344  .00026852  00000-0  83028-3 0  9993
2 68119  97.2861  80.4742 0001592 105.5693 254.5726 15.33476434  9360
Epoch: 2026-04-29T10:33Z
TLE epoch observation values (Epoch: 2026-04-29T10:33:12.105Z)
Latitude
0.00004°
Longitude
64.7731°
Altitude
468.852 km
Speed
7.632 km/s
True Right ascension
05h 21m 53s
True Declination
0° 00' 00"
Sunlit
Object was in daylight at epoch
Visualization orbit readout
Latitude
Unknown
Longitude
Unknown
Altitude
Unknown
Speed
Unknown
Apparent Right ascension
Unknown
Apparent Declination
Unknown
Sunlit
N/A
Visualization observer readout
Local Sidereal Time
05:38:39
Azimuth
Unknown
Elevation
Unknown
Doppler factor
Unknown
Orbital elements
Apogee altitude
463.481 km
Perigee altitude
461.303 km
Semi-major axis
6,840.529 km
Eccentricity
0.00016
Inclination
97.2861°
RAAN
80.4742°
Arg. of periapsis
105.5693°
True anomaly
254.55502°
Mean anomaly
254.5726°
Eccentric anomaly
254.56381°
Mean motion
3.83626 °/min
Orbital period
93.84 mins
BSTAR
0.00083028
Loading maneuver chart data...
Computing Atmospheric mass density...
Loading historical data...
Loading historical data...
Loading historical data...
Loading historical data...
Loading historical data...
Loading historical data...
Loading historical data...

Documentation

Showing up to 5 results
|